Zurück zum Katalog

CARTOSAT 3

AktivWissenschaftSSO
NORAD 44804·PAYLOAD·🇮🇳 India

Gestartet Nov 27, 2019 von Satish Dhawan Space Centre

Loading…

Nächste Überflüge (nächste 24 Stunden)

TLE

AktuellSource: Space-Track

Epoche: Sep 14, 2026, 14:24 UTC

1 44804U 19081A   26257.60001615  .00002422  00000-0  11815-3 0  9999
2 44804  97.4212 317.9823 0010931 195.6164 164.4735 15.19210671377040

Verfolge CARTOSAT 3 in Echtzeit mit AllMySat

Download on the App Store